User: anonymous   Login
Location: Brno
(49.2000°N, 16.6330°E)
Time: 19:33:22
(UTC+02:00)
Language:

Cosmos 332 Rocket - Orbit

View from above orbital plane
View from above orbital plane
View from above satellite
View from above satellite

Ground track
Ground track

The orbit data is extracted from the following two-line orbital elements,

1  4370U 70028B   17227.83194859 +.00000028 +00000-0 +12167-4 0  9998
2  4370 074.0413 335.4615 0016522 240.9228 119.0283 14.59871172020208
Epoch (UTC): 15 August 2017 19:58:00
Eccentricity: 0.0016522
inclination: 74.0413°
perigee height: 682 km
apogee height: 705 km
right ascension of ascending node: 335.4615°
argument of perigee: 240.9228°
revolutions per day: 14.59871172
mean anomaly at epoch: 119.0283°
orbit number at epoch: 2020

The dashed part of the orbit path shows where the satellite is in the earth's shadow,  

DLR